Regional Weather Roundup
Issued by NWS Raleigh/Durham, NC

Home | Current Version | Previous Version | Text Only | Print | Product List | Glossary On
Versions: 1 2 3 4 5 6 7 8 9 10 11 12 13 14 15 16 17 18 19 20 21 22 23 24 25 26 27 28 29 30 31 32 33 34 35 36 37 38 39 40 41 42 43 44 45 46 47 48 49 50
000
ASUS42 KRAH 272110
RWRRAH
NORTH CAROLINA WEATHER ROUNDUP
NATIONAL WEATHER SERVICE RALEIGH NC
400 PM EST THU NOV 27 2014

NOTE: "FAIR" INDICATES FEW OR NO CLOUDS BELOW 12,000 FEET WITH NO
SIGNIFICANT WEATHER AND/OR OBSTRUCTIONS TO VISIBILITY.

NCZ001-053-055-056-065-067-272200-
WESTERN NORTH CAROLINA

CITY           SKY/WX    TMP DP  RH WIND       PRES   REMARKS
ASHEVILLE      CLOUDY    36  24  62 N13       30.19R WCI  27
JEFFERSON      CLOUDY    30  22  70 W16G36    30.06R WCI  19
MORGANTON      PTSUNNY   43  24  48 NW9       30.20R
HICKORY        CLOUDY    44  26  49 N6        30.14R
RUTHERFORDTON  MOSUNNY   45  24  44 NW8G17    30.18R
MOUNT AIRY     PTSUNNY   41  27  57 NW9G20    30.16R
BOONE          LGT SNOW  29  28  95 NW16G26   30.10R WCI  18
$$

NCZ021-022-025-041-071-084-088-272200-
CENTRAL NORTH CAROLINA

CITY           SKY/WX    TMP DP  RH WIND       PRES   REMARKS
CHARLOTTE      PTSUNNY   49  24  37 NW12      30.14R
GREENSBORO     PTSUNNY   44  29  55 NW18      30.10R
WINSTON-SALEM  MOSUNNY   44  25  47 NW14G25   30.13R
RALEIGH-DURHAM LGT RAIN  45  36  70 NW9G18    30.10R
FORT BRAGG     MOSUNNY   50  36  57 NW13G20   30.10R
FAYETTEVILLE   SUNNY     49  36  61 NW13G18   30.10R
BURLINGTON     PTSUNNY   46  29  51 NW9       30.10R
LAURINBURG     SUNNY     50  34  54 NW7       30.12R
$$

NCZ011-015-027-028-043-044-047-080-103-272200-
NORTHEASTERN NORTH CAROLINA

CITY           SKY/WX    TMP DP  RH WIND       PRES   REMARKS
ROCKY MT-WILSO PTCLDY    46  39  76 NW10      30.07R
GREENVILLE     CLOUDY    46  39  76 NW9       30.07R
WASHINGTON     MOCLDY    45  40  82 NW9G16    30.05R
ELIZABETH CITY CLOUDY    46  39  76 NW10      30.03R
MANTEO         CLEAR     49  42  78 N12G20    30.00R
CAPE HATTERAS  CLEAR     51  44  77 N8G17     29.96R
$$

NCZ078-087-090-091-093-098-101-272200-
SOUTHEASTERN NORTH CAROLINA

CITY           SKY/WX    TMP DP  RH WIND       PRES   REMARKS
LUMBERTON      MOSUNNY   51  35  54 NW14G21   30.11R
GOLDSBORO      MOCLDY    47  43  84 NW7       30.06R
KINSTON        PTCLDY    46  39  76 N9        30.07R
KENANSVILLE    PTCLDY    47  37  69 NW12G17   30.08R
NEW BERN       CLOUDY    50  42  74 NW17      30.04R
CHERRY POINT   CLOUDY    51  40  65 NW17      30.03R
BEAUFORT       PTCLDY    53  40  61 NW23G30   30.01R
JACKSONVILLE   CLEAR     50  36  58 NW20G25   30.04R
WILMINGTON     LGT RAIN  49  40  71 NW20G30   30.06R
$$



USA.gov is the U.S. government's official web portal to all federal, state and local government web resources and services.